Flag for Cuba Weather past 2 weeks in Holguín, Cuba

Now
86 °F

Partly sunny.


Feels Like: 87 °F
Forecast: 67 / 84 °F
Wind: 12 mph from Northeast

Location: Holguin Civ / Mil

Current Time: Dec 21, 2014 at 1:11:48 PM

Latest Report: Dec 21, 2014 at 12:50 PM


Visibility: 6 mi

Pressure: 30.01 "Hg

Humidity: 46%

Dew point: 63 °F

Location of HolguínLocation

Historic Weather in Holguín — Graph

°F

Holguín temperature yesterday

Maximum temperature yesterday: 86 °F (at 12:50 PM)
Minimum temperature yesterday: 61 °F (at 6:50 AM)
Average temperature yesterday: 74 °F

Past Weeks' High & Low Weather Summary

 TemperatureHumidityPressure
High86 °F (Dec 20, 12:50 PM)94% (Dec 7, 2:51 AM)30.12 "Hg (Dec 7, 2:51 AM)
Low59 °F (Dec 11, 2:52 AM)37% (Dec 9, 2:52 PM)29.92 "Hg (Dec 7, 2:50 PM)
Average71 °F77%30.01 "Hg
* Reported Dec 6 10:50 AM — Dec 21 10:51 AM, Holguín, Weather by CustomWeather, © 2014

Note: Actual official high and low records may vary slightly from our data, if they occured in-between our weather recording intervals... More about our weather records

Advertising

Holguín weather history for previous 24 hours

 ConditionsComfort  
Time TempWeatherWind HumidityBarometerVisibility
10:51 AM
Dec 21
81 °FScattered clouds.6 mph66%30.07 "Hg6 mi
9:51 AM75 °FFog.5 mph83%30.07 "Hg5 mi
8:53 AM70 °FScattered clouds.2 mph88%30.07 "Hg2 mi
7:50 AM66 °FFog.2 mph94%30.07 "Hg0 mi
6:51 AM64 °FFog.2 mph94%30.04 "Hg5 mi
5:50 AM68 °FPassing clouds.6 mph94%30.04 "Hg5 mi
4:51 AM66 °FClear.5 mph88%30.01 "Hg5 mi
3:51 AM66 °FFog.2 mph94%30.01 "Hg4 mi
2:50 AM66 °FClear.3 mph94%30.01 "Hg5 mi
1:50 AM66 °FClear.5 mph94%30.01 "Hg6 mi
12:50 AM66 °FClear.No wind94%30.04 "Hg6 mi
11:50 PM
Dec 20
68 °FClear.1 mph88%30.04 "Hg6 mi
10:50 PM72 °FClear.6 mph88%30.04 "Hg6 mi
9:55 PM72 °FPassing clouds.7 mph88%30.04 "Hg6 mi
8:50 PM72 °FPassing clouds.8 mph88%30.04 "Hg6 mi
7:50 PM73 °FPassing clouds.8 mph83%30.01 "Hg6 mi
6:50 PM75 °FPassing clouds.7 mph78%30.01 "Hg6 mi
5:51 PM77 °FPassing clouds.8 mph74%29.98 "Hg6 mi
4:50 PM81 °FPassing clouds.13 mph62%29.98 "Hg6 mi
3:50 PM82 °FPassing clouds.14 mph62%29.98 "Hg6 mi
2:50 PM82 °FScattered clouds.10 mph58%29.98 "Hg6 mi
1:50 PM86 °FScattered clouds.5 mph46%29.98 "Hg6 mi
Weather by CustomWeather, © 2014

See weather overviewHow to use our weather pages